Tracking 25710 objects as of 5-Jul-2022
HD Live streaming from Space Station
objects crossing your sky now

STARLINK-1851

Track STARLINK-1851 now!
10-day predictions
STARLINK-1851 is classified as:


NORAD ID: 46783
Int'l Code: 2020-074AW
Perigee: 553.0 km
Apogee: 555.7 km
Inclination: 53.1 °
Period: 95.6 minutes
Semi major axis: 6925 km
RCS: Unknown
Launch date: October 24, 2020
Source: United States (US)
Launch site: AIR FORCE EASTERN TEST RANGE (AFETR)
aabbcc
Your satellite tracking list
Your tracking list is empty




NASA's NSSDC Master Catalog

Two Line Element Set (TLE):
1 46783U 20074AW  22185.84605642 -.00000463  00000-0 -12207-4 0  9995
2 46783  53.0540 224.3765 0001948  52.5572 307.5594 15.06396304 93994
Source of the keplerian elements: AFSPC